{"data":{"norad_id":60184,"epoch":"2026-09-20T05:57:41.988096Z","epoch_age_seconds":203216,"freshness":"STALE","line1":"1 60184U 24124B   26263.24840264 -.00000579  00000+0  80894-7 0  9998","line2":"2 60184  53.1585 282.0112 0001019  74.1610 285.9520 15.69705037127097","mean_motion":15.69705037,"eccentricity":0.0001019,"inclination_deg":53.1585,"raan_deg":282.0112,"arg_perigee_deg":74.161,"mean_anomaly_deg":285.952,"bstar":8.0894e-8,"rev_number":12709,"period_min":91.736980264274,"perigee_km":359.05436290009,"apogee_km":360.42754242684,"semimajor_km":6737.8779526635,"source":"CELESTRAK","updated_at":"2026-09-22T09:00:49.181685Z"}}